Regional Weather Roundup
Issued by NWS Wakefield, VA

Home | Current Version | Previous Version | Graphics & Text | Print | Product List | Glossary On
Versions: 1 2 3 4 5 6 7 8 9 10 11 12 13 14 15 16 17 18 19 20 21 22 23 24 25 26 27 28 29 30 31 32 33 34 35 36 37 38 39 40 41 42 43 44 45 46 47 48 49 50
000
ASUS41 KAKQ 010810
RWRAKQ

REGIONAL WEATHER ROUNDUP
NATIONAL WEATHER SERVICE WAKEFIELD VA
300 AM EST SUN MAR 01 2015

Note: "fair" indicates few or no clouds below 12,000 feet with no
significant weather and/or obstructions to visibility. * = Denotes
station may not report precipitation (e.g., rain,snow,etc.),
thunder or fog.

VAZ042-051-052>054-056-010900-
NORTHERN VIRGINIA

CITY           SKY/WX    TMP DP  RH WIND       PRES   REMARKS
WASH NATIONAL  CLOUDY    27  13  55 S3        30.71F
DULLES         CLOUDY    22  12  65 CALM      30.68F
FORT BELVOIR   CLOUDY    23  14  70 NE1       30.69F
QUANTICO       CLOUDY    26  12  55 S8        30.70F
FREDERICKSBRG* MOCLDY    25  15  67 CALM      30.68F
STAFFORD*      CLOUDY    23  11  60 CALM      30.72F
WARRENTON      CLOUDY    24  20  85 CALM      30.66F
CULPEPER*      CLOUDY    23  18  80 CALM      30.66F
MANASSAS*      CLOUDY    21  16  79 CALM      30.68F
LEESBURG*      CLOUDY    23  14  68 CALM      30.68F
WINCHESTER     CLOUDY    25   5  42 CALM      30.61F
FRONT ROYAL*   CLOUDY    23  12  63 CALM      30.61F
LURAY*         CLOUDY    28  16  59 S3        30.59F
$$

VAZ048-049-060>072-079>083-010900-
CENTRAL AND SOUTH CENTRAL VIRGINIA

CITY           SKY/WX    TMP DP  RH WIND       PRES   REMARKS
RICHMOND       PTCLDY    23  13  65 CALM      30.68F
CHESTERFIELD*  FAIR      23   9  54 CALM      30.68F
PETERSBURG*    PTCLDY    20  19  93 CALM      30.68F
HANOVER        CLEAR     20  14  77 CALM      30.69F
TAPPAHANNOCK*  CLEAR     17  10  77 CALM      30.69F
QUINTON*       FAIR      20  15  80 CALM      30.68F
CHARLOTTSVILLE CLEAR     23  11  60 CALM      30.63F
GORDONSVILLE*  FAIR      18  12  77 CALM      30.64F
ORANGE*        CLEAR     21  16  79 CALM      30.66F
LOUISA*        PTCLDY    19  16  86 CALM      30.63F
BUMPASS*       FAIR      20  13  75 CALM      30.66F
FARMVILLE*     PTCLDY    24  12  60 CALM      30.64F
CREWE*         PTSUNNY   21  17  84 CALM      30.65F
FORT PICKETT*  PTSUNNY   24  16  71 NE3       30.64F
CHASE CITY*    CLOUDY    28  17  61 CALM      30.64F
CLARKSVILLE*   CLOUDY    28  18  64 CALM      30.64F
SOUTH HILL*    CLOUDY    25  16  68 CALM      30.71S
LAWRENCEVILLE* CLOUDY    24  18  77 CALM      30.65F
EMPORIA*       CLOUDY    25  19  80 CALM      30.67F
$$

VAZ088>098-010900-
SOUTHEAST VIRGINIA

CITY           SKY/WX    TMP DP  RH WIND       PRES   REMARKS
NORFOLK        CLEAR     29  21  72 NE10      30.65F WCI  20
VIRGINIA BEACH PTCLDY    28  19  69 NE8       30.65F
NORFOLK NAVAL  PTCLDY    30  20  66 NE10      30.66F WCI  21
WEST POINT*    CLEAR     20  16  83 CALM      30.70F
SALUDA*        FAIR      16  13  88 CALM      30.69F
NEWPORT NEWS   CLEAR     21  16  81 NE6       30.66F
LANGLEY AFB    CLEAR     25  19  77 NE7       30.66F
FORT EUSTIS    PTCLDY    21  21  99 N1        30.65F
WILLIAMSBURG*  CLEAR     23  19  86 CALM      30.68F
HR EXEC AP*    FAIR      19  16  86 CALM      30.67F
FRANKLIN*      PTCLDY    23  19  84 CALM      30.67F
WAKEFIELD      CLEAR     21  16  81 N3        30.67F
$$

VAZ020-022-025-037-045-010900-
WEST CENTRAL AND SOUTHWEST VIRGINIA

CITY           SKY/WX    TMP DP  RH WIND       PRES   REMARKS
STAUNTON*      MOCLDY    23  11  60 CALM      30.59F
WAYNESBORO*    PTSUNNY   23  10  58 CALM      30.56F
HOT SPRINGS VA CLOUDY    24  16  69 SW10G16   30.40F WCI  14
LYNCHBURG      MOCLDY    22  14  71 CALM      30.63F
DANVILLE       CLOUDY    29  15  56 NE3       30.64F
SOUTH BOSTON*  CLOUDY    27  16  61 CALM      30.65F
MARTINSVILLE   CLOUDY    28  23  82 CALM      30.64F
ROANOKE        CLOUDY    27  12  53 CALM      30.62F
BLACKSBURG     CLOUDY    25  12  58 E5        30.57F
DUBLIN*        CLOUDY    27  19  69 E3        30.54F
MARION*        CLOUDY    28  18  65 NE12      30.49F WCI  18
HILLSVILLE*    MOCLDY    25  14  64 S3        30.49F
RICHLANDS*     CLOUDY    36  18  49 SE8       30.37F
WISE*          CLOUDY    37  19  48 S10       30.38F
ABINGDON*      PTCLDY    35  22  59 E8        30.42F
$$

MDZ021>025-VAZ099-100-010900-
SOUTHERN MARYLAND AND THE DELMARVA PENINSULA

CITY           SKY/WX    TMP DP  RH WIND       PRES   REMARKS
PATUXENT RIVER PTCLDY    20  14  77 CALM      30.70F
BAY BRIDGE APT   N/A     23  14  68 CALM      30.71F
LEONARDTOWN    MOCLDY    21  16  79 CALM      30.71F
DOVER          CLEAR     18  13  79 CALM      30.71F
GEORGETOWN     CLEAR     14   9  80 CALM      30.71F
EASTON         MOCLDY    20  16  84 CALM      30.74F
CAMBRIDGE      MOCLDY    21  16  79 CALM      30.70F
SALISBURY      CLEAR     17  11  77 CALM      30.70F
OCEAN CITY     CLEAR     14  10  84 N5        30.70F
WALLOPS ISLAND CLEAR     15  12  88 N3        30.70F
ACCOMACK*      CLEAR     16  12  86 NE5       30.68F
$$

NCZ012>017-030>032-010900-
NORTH CENTRAL AND EASTERN NORTH CAROLINA

CITY           SKY/WX    TMP DP  RH WIND       PRES   REMARKS
ROANOKE RAPIDS CLOUDY    28  19  69 NE5       30.65F
RALEIGH        CLOUDY    30  17  58 NE5       30.62F
ELIZABETH CITY PTCLDY    31  24  75 NE10      30.64F WCI  22
AHOSKIE*       CLOUDY    27  19  72 N5        30.66F
EDENTON*       MOCLDY    29  22  74 NE6       30.63F
CURRITUCK*     CLEAR     32  24  72 NE7       30.65F
KILL DEVIL HLS CLEAR     35  32  88 N9        30.60F
MANTEO         CLEAR     36  30  80 N12       30.61F
CAPE HATTERAS  PTCLDY    37  35  92 NE8       30.59F
TARBORO*       CLOUDY    30  19  64 N6        30.65F
GOLDSBORO      CLOUDY    32  28  83 NE6       30.59F
WASHINGTON     CLOUDY    30  20  67 NE5       30.62F
GREENVILLE     CLOUDY    32  21  64 N5        30.62F
NEW BERN       CLOUDY    32  24  72 N7        30.61F
WILMINGTON     CLOUDY    37  27  67 N8        30.57F
$$

VAZ048-010900-
ELSEWHERE

CITY           SKY/WX    TMP DP  RH WIND       PRES   REMARKS
HARRISBURG PA  CLOUDY    18   9  68 E3        30.68F
BALTIMORE      CLOUDY    18  10  71 CALM      30.70F
ANNAPOLIS      CLOUDY    21  15  78 CALM      30.71F
ANDREWS AFB    CLOUDY    23  11  60 S5        30.68F
PHILADELPHIA   CLOUDY    22   8  55 CALM      30.72F
HENDERSON NC   CLOUDY    27  15  60 CALM      30.63F
GREENSBORO     CLOUDY    31  15  52 N3        30.59F
ROCKY MOUNT    CLOUDY    31  18  58 NE7       30.62F
$$

VAZ100-010900-
MARINE

STATION/POSITION TIME  TEMP    WIND        PRES    WAVE   SWELL
                       AIR SEA DIR/SP/G            HT/PER HT/PER
                 (UTC) (F)     (DEG/KT/KT) (MB)    (FT/S) (FT/S)
BRANDYWINE LGT   0700   25 29  270/  3/  4 1040.5F
CAPE MAY NJ      0800   19 32     CALM     1040.1S
LEWES DE         0800   20 30   CALM  /  1 1040.1F
15NM E FENWICK I 0800   28 33              1039.8F   2/ 8
OCEAN-CITY-INLET 0700   24 32  350/  3/  4 1039.7F
WACHAPREAGUE VA  0800   22 34  340/  2/  4 1038.8F
THOMAS POINT MD  0800   26 31  160/  7/  8 1040.7F
COVE POINT MD    0800   25      CALM  /  1 1039.5F
SOLOMONS ISLAND  0800      32                N/A
BISHOPS HEAD MD  0800   27 31  120/  2/  4 1039.4F
CAMBRIDGE MD     0800   20 32  170/  1/  2 1039.9S
LEWISETTA VA     0800   21 34     CALM     1039.6S
RAPPAHANNOCK LGT 0800           30/  8/  8 1039.4F
STINGRAY PT      0800   28 31   60/  6/  8   N/A
YORK RVR RNG VA  0800   29      70/  8/ 10 1038.2F
YORKTOWN VA      0800   28 33   50/  6/  7 1038.6F
DOMINION TERM VA 0800   27      50/  4/  6 1038.5F
KIPTOPEKE VA     0800      37   80/  7/  9   N/A
CHES BAY BRIDGE  0700   30 33   30/ 11/ 12 1038.1F
CAPE HENRY VA    0800   31      40/ 11/ 13 1036.9F
CHESAPEAKE LGHT  0700   33      50/ 15/ 16 1039.3F
WILLOUBY STN VA  0800   29      50/ 10/ 11 1038.6F
S CRANEY ISL VA  0800           30/  7/ 10 1038.4F
CAPE HENRY BUOY  0800      35                N/A     3/10
1ST LANDING BUOY 0800   31 32   50/ 12/ 14 1037.7F   2/ 3
OFFSHORE WE BUOY 0800      36                N/A     4/ 8   2/ 8
64NM E OF VA BCH 0800   47 65   60/ 12/ 16 1036.6F   4/ 9   3/ 9
DUCK PIER NC     0800   35 34   20/ 14/ 17 1036.3F
44100 DUCK FRF   0800      37                N/A     5/ 5   2/11
44056 DUCK FRF   0800      34                N/A     4/ 6
OREGON INLET NC  0800   36 39  360/ 10/ 13 1036.5F
HATTERAS NC      0700   37 39   30/ 10/ 15 1036.2F
CAPE LOOKOUT NC  0700   39      30/ 20/ 22 1036.0F
$$


USA.gov is the U.S. government's official web portal to all federal, state and local government web resources and services.